Regional Weather Roundup
Issued by NWS

Home | Current Version | Previous Version | Text Only | Print | Product List | Glossary On
Versions: 1 2 3 4 5 6 7 8 9 10 11 12 13 14 15 16 17 18 19 20 21 22 23 24 25 26 27 28 29 30 31 32 33 34 35 36 37 38 39 40 41 42 43 44 45 46 47 48 49 50
427
ASUS44 KJAN 202210
RWRMS

MISSISSIPPI HOURLY WEATHER ROUNDUP
NATIONAL WEATHER SERVICE JACKSON MS
500 PM CDT WED AUG 20 2014

NOTE: "FAIR: INDICATES FEW OR NO CLOUDS BELOW 12,000 FEET WITH NO
SIGNIFICANT WEATHER AND/OR OBSTRUCTIONS TO VISIBILITY.

MSZ001>002-007>008-010>013-018>021-025>028-034>036-202300-
NORTHWEST MISSISSIPPI

CITY           SKY/WX    TMP DP  RH WIND       PRES   REMARKS
CLARKSDALE     FAIR      91  73  55 CALM      30.00F HX 100
CLEVELAND      FAIR      92  73  53 S5        30.00S HX 100
GREENWOOD      SUNNY     92  72  51 S7        30.00F HX  99
GREENVILLE     SUNNY     92  68  45 W10       29.99F HX  96
GRENADA        FAIR      90  70  51 W3        30.01F HX  95
OLIVE BRANCH   MOSUNNY   91  73  55 SW12      29.99F HX 100
OXFORD         FAIR      90  70  51 W6        30.03S HX  95
TUNICA           N/A     91  68  46 SW12      29.99F HX  95
$$

MSZ003>006-009-014>017-022>024-029>033-037>039-202300-
NORTHEAST MISSISSIPPI

CITY           SKY/WX    TMP DP  RH WIND       PRES   REMARKS
BELMONT        FAIR      90  73  58 SW7       30.01F HX  98
COLUMBUS AFB   SUNNY     94  69  43 NW8       30.00F HX  99
CORINTH        FAIR      91  72  52 SW8       29.99S HX  98
GOLDN TRIANGLE MOSUNNY   97  70  41 W5        30.01F HX 103
STARKVILLE     FAIR      93  66  40 W6        30.00F HX  96
TUPELO         SUNNY     94  69  44 W8        30.00S HX  99
$$

MSZ040-058-202300-
CENTRAL MISSISSIPPI

CITY           SKY/WX    TMP DP  RH WIND       PRES   REMARKS
JACKSON INTL   MOSUNNY   93  70  46 SW7       30.03S HX  99
JACKSON HAWKNS MOSUNNY   94  69  44 S3        30.03F HX  99
MERIDIAN KEY   MOSUNNY   93  69  45 W8        30.02F HX  98
MERIDIAN NAS   MOSUNNY   93  70  46 W7        30.02F HX  99
RAYMOND        FAIR      95  90  84 CALM      30.03S HX 139
VICKSBURG      SUNNY     92  67  43 S8        30.02S HX  95
$$

MSZ059>079-202300-
SOUTH MISSISSIPPI

CITY           SKY/WX    TMP DP  RH WIND       PRES   REMARKS
BROOKHAVEN     FAIR      91  72  52 SE3       30.06S HX  98
COLUMBIA       FAIR      93  73  52 MISG      30.02S HX 102
HATTIESBURG    SUNNY     94  67  41 S6        30.03F HX  97
MCCOMB         SUNNY     93  69  45 S8        30.04S HX  98
NATCHEZ        PTSUNNY   90  73  58 E8        30.04R HX  98
PINE BELT      SUNNY     93  66  40 NW3       30.06S HX  96
$$

MSZ080>082-202300-
COASTAL MISSISSIPPI

CITY           SKY/WX    TMP DP  RH WIND       PRES   REMARKS
BAY ST LOUIS   MOSUNNY  N/A N/A N/A S5        30.04S
BILOXI         MOSUNNY   90  77  65 S12       30.05R HX 102
PASCAGOULA     MOSUNNY   87  74  64 S7        30.04S HX  95
GULFPORT       PTSUNNY   89  74  60 S8        30.04S HX  98
$$



USA.gov is the U.S. government's official web portal to all federal, state and local government web resources and services.